Weather History for Trinidad, CO

Change the Weather History Date:

Saturday, March 10, 2012

  Actual Average Record
Temperature  
Mean Temperature 43 °F 41 °F  
Max Temperature 55 °F 56 °F 84 °F (1989)
Min Temperature 30 °F 26 °F 3 °F (1969)
Degree Days  
Heating Degree Days 22 24  
Month to date heating degree days 254 253  
Since 1 July heating degree days 4030 4375  
Cooling Degree Days 0 0  
Month to date cooling degree days 0 0  
Year to date cooling degree days 0 0  
Moisture  
Dew Point 33 °F    
Average Humidity 63    
Maximum Humidity 85    
Minimum Humidity 41    
Precipitation  
Precipitation 0.01 in 0.02 in 0.79 in (1968)
Month to date precipitation 0.18 0.26  
Year to date precipitation 1.15  
Snow  
Snow 0.00 in - - ()
Month to date snowfall 0.0  
Snow Depth 0.00 in    
Sea Level Pressure  
Sea Level Pressure 29.96 in    
Wind  
Wind Speed 7 mph (SSW)    
Max Wind Speed 22 mph    
Max Gust Speed 25 mph    
Visibility 10 miles    
Events      
T = Trace of Precipitation, MM = Missing Value Source: NWS Daily Summary

Daily Weather History Graph

Daily Weather History Graph

Search for Another Location

Airport:

Trip Planner

Search our weather history database for the weather conditions in past years. The results will help you decide how hot, cold, wet, or windy it might be!

Date:

Astronomy

Mar. 10, 2012 Rise Set
Actual Time 6:14 AM MST 6:00 PM MST
Civil Twilight 5:48 AM MST 6:26 PM MST
Nautical Twilight 5:18 AM MST 6:56 PM MST
Astronomical Twilight 4:48 AM MST 7:27 PM MST
Moon 9:09 PM MST (3/10) 7:16 AM MST (3/10)
Length of Visible Light 12h 37m
Length of Day
11h 45m
Waning Gibbous, 92% of the Moon is Illuminated
Mar 10
Waning Gibbous
Mar 14
Last Quarter
Mar 22
New
Mar 30
First Quarter
Apr 6
Full

Hourly Weather History & Observations

Time (MST) Temp. Windchill Dew Point Humidity Pressure Visibility Wind Dir Wind Speed Gust Speed Precip Events Conditions
12:54 AM 37.0 °F 28.1 °F 26.1 °F 65% 30.21 in 10.0 mi WSW 15.0 mph - N/A   Overcast
1:54 AM 34.0 °F 24.2 °F 28.9 °F 82% 30.18 in 10.0 mi WSW 15.0 mph - N/A   Mostly Cloudy
2:54 AM 33.1 °F 23.4 °F 28.0 °F 82% 30.14 in 10.0 mi WSW 13.8 mph - N/A   Clear
3:54 AM 32.0 °F 25.6 °F 26.1 °F 79% 30.13 in 10.0 mi SW 6.9 mph - N/A   Mostly Cloudy
5:54 AM 32.0 °F 26.4 °F 28.9 °F 88% 30.14 in 10.0 mi SSW 5.8 mph - N/A   Mostly Cloudy
6:54 AM 33.1 °F 27.7 °F 28.9 °F 85% 30.14 in 10.0 mi WSW 5.8 mph - N/A   Mostly Cloudy
7:54 AM 39.0 °F 34.0 °F 30.9 °F 73% 30.13 in 10.0 mi WSW 6.9 mph - N/A   Overcast
8:54 AM 43.0 °F - 32.0 °F 65% 30.11 in 10.0 mi Calm Calm - N/A   Overcast
9:54 AM 46.9 °F - 32.0 °F 56% 30.06 in 10.0 mi ESE 4.6 mph - N/A   Overcast
10:54 AM 50.0 °F - 32.0 °F 50% 30.03 in 10.0 mi SE 8.1 mph - N/A   Partly Cloudy
11:54 AM 53.1 °F - 30.9 °F 43% 29.98 in 10.0 mi East 6.9 mph - N/A   Scattered Clouds
12:54 PM 55.0 °F - 33.1 °F 43% 29.92 in 10.0 mi ESE 10.4 mph - N/A   Overcast
1:54 PM 50.0 °F - 36.0 °F 59% 29.93 in 10.0 mi SSE 16.1 mph - 0.00 in   Overcast
2:54 PM 48.0 °F - 39.9 °F 74% 29.92 in 10.0 mi SSE 10.4 mph - 0.01 in   Overcast
3:54 PM 48.0 °F - 39.9 °F 74% 29.90 in 10.0 mi West 12.7 mph - 0.00 in   Overcast
4:54 PM 48.0 °F - 39.0 °F 71% 29.88 in 10.0 mi WSW 6.9 mph - N/A   Mostly Cloudy
5:54 PM 45.0 °F 41.8 °F 37.9 °F 76% 29.88 in 10.0 mi WSW 5.8 mph - N/A   Scattered Clouds
6:11 PM 44.6 °F 40.7 °F 37.4 °F 76% 29.92 in 10.0 mi WSW 6.9 mph - N/A   Mostly Cloudy
6:22 PM 42.8 °F 38.6 °F 37.4 °F 81% 29.92 in 10.0 mi WSW 6.9 mph - N/A   Scattered Clouds
6:54 PM 44.1 °F 42.5 °F 37.0 °F 76% 29.88 in 10.0 mi NE 3.5 mph - N/A   Clear
7:54 PM 42.1 °F - 35.1 °F 76% 29.85 in 10.0 mi Calm Calm - N/A   Clear
8:54 PM 37.0 °F 32.4 °F 33.1 °F 86% 29.86 in 10.0 mi ENE 5.8 mph - N/A   Partly Cloudy
9:54 PM 37.9 °F 35.5 °F 33.1 °F 83% 29.83 in 10.0 mi East 3.5 mph - N/A   Overcast
10:54 PM 37.9 °F 33.5 °F 33.1 °F 83% 29.79 in 10.0 mi East 5.8 mph - N/A   Overcast
11:02 PM 37.4 °F - 33.8 °F 87% 29.85 in 10.0 mi Calm Calm - N/A   Overcast
11:10 PM 37.4 °F - 33.8 °F 87% 29.85 in 10.0 mi Calm Calm - N/A   Overcast
11:22 PM 37.4 °F 34.9 °F 33.8 °F 87% 29.85 in 10.0 mi ENE 3.5 mph - N/A   Overcast
11:54 PM 37.0 °F 32.4 °F 33.1 °F 86% 29.74 in 10.0 mi NNE 5.8 mph - N/A   Overcast